User: anonymous   Login
Location: Unspecified
(0.0000°N, 0.0000°E)
Time: 08:05:39
(UTC+00:00)
Language:

BHUTAN-1 - Orbit

View from above orbital plane
View from above orbital plane
View from above satellite
View from above satellite

Ground track
Ground track

The orbit data is extracted from the following two-line orbital elements,

1 43591U 98067PF  20223.76529532 +.00050528 +00000-0 +25038-3 0  9991
2 43591 051.6356 005.0804 0004347 322.4313 037.6385 15.81479146114490
Epoch (UTC): 10 August 2020 18:22:01
Eccentricity: 0.0004347
inclination: 51.6356°
perigee height: 323 km
apogee height: 329 km
right ascension of ascending node: 5.0804°
argument of perigee: 322.4313°
revolutions per day: 15.81479146
mean anomaly at epoch: 37.6385°
orbit number at epoch: 11449

The dashed part of the orbit path shows where the satellite is in the earth's shadow,  

DLR